When you browse on this site, cookies collect data to enhance your experience and personalize the content and advertising you see.
Visit our Privacy Policy to learn more. By continuing to use the site, you agree to this use of cookies and data.
  • în România
  • Lista ţărilor
  • Pe 7 zile
  • Temperatura apei
  • Meteo pe hartă
  • Widget-uri
  • user-avatar
    Intrare

    Meteo pe oră la Darwin

    Astăzi, 21 August, Miercuri

    Timp Temperatura Precipitaţii Vânt Presiune Umiditate
    00:00 +23°C° 0 mm 7 m/s 762 mmHg 28%
    01:00 +22°C° 0 mm 7 m/s 762 mmHg 30%
    02:00 +21°C° 0 mm 7 m/s 761 mmHg 32%
    03:00 +20°C° 0 mm 7 m/s 761 mmHg 32%
    04:00 +20°C° 0 mm 7 m/s 761 mmHg 34%
    05:00 +18°C° 0 mm 8 m/s 761 mmHg 36%
    06:00 +18°C° 0 mm 8 m/s 762 mmHg 39%
    07:00 +21°C° 0 mm 8 m/s 762 mmHg 36%
    08:00 +22°C° 0 mm 7 m/s 762 mmHg 33%
    09:00 +24°C° 0 mm 7 m/s 762 mmHg 30%
    10:00 +27°C° 0 mm 6 m/s 762 mmHg 26%
    11:00 +30°C° 0 mm 6 m/s 761 mmHg 23%
    12:00 +33°C° 0 mm 5 m/s 760 mmHg 20%
    13:00 +34°C° 0 mm 5 m/s 760 mmHg 19%
    14:00 +35°C° 0 mm 5 m/s 759 mmHg 19%
    15:00 +36°C° 0 mm 5 m/s 758 mmHg 18%
    16:00 +34°C° 0 mm 4 m/s 758 mmHg 25%
    17:00 +30°C° 0 mm 3 m/s 758 mmHg 32%
    18:00 +28°C° 0 mm 2 m/s 759 mmHg 39%
    19:00 +26°C° 0 mm 2 m/s 759 mmHg 47%
    20:00 +24°C° 0 mm 3 m/s 760 mmHg 54%
    21:00 +21°C° 0 mm 3 m/s 760 mmHg 62%
    22:00 +21°C° 0 mm 3 m/s 760 mmHg 56%
    23:00 +21°C° 0 mm 3 m/s 760 mmHg 51%

    Mâine, 22 August, Joi

    Timp Temperatura Precipitaţii Vânt Presiune Umiditate
    00:00 +20°C° 0 mm 4 m/s 761 mmHg 45%
    01:00 +20°C° 0 mm 4 m/s 760 mmHg 46%
    02:00 +20°C° 0 mm 5 m/s 760 mmHg 48%
    03:00 +20°C° 0 mm 5 m/s 760 mmHg 49%
    04:00 +19°C° 0 mm 5 m/s 760 mmHg 59%
    05:00 +17°C° 0 mm 5 m/s 761 mmHg 69%
    06:00 +16°C° 0 mm 5 m/s 761 mmHg 80%
    07:00 +19°C° 0 mm 5 m/s 761 mmHg 68%
    08:00 +22°C° 0 mm 6 m/s 762 mmHg 57%
    09:00 +26°C° 0 mm 6 m/s 762 mmHg 45%
    10:00 +28°C° 0 mm 6 m/s 761 mmHg 39%
    11:00 +32°C° 0 mm 5 m/s 761 mmHg 33%
    12:00 +34°C° 0 mm 4 m/s 760 mmHg 27%
    13:00 +35°C° 0 mm 5 m/s 760 mmHg 26%
    14:00 +36°C° 0 mm 5 m/s 759 mmHg 26%
    15:00 +37°C° 0 mm 5 m/s 758 mmHg 25%
    16:00 +34°C° 0 mm 4 m/s 759 mmHg 32%
    17:00 +30°C° 0 mm 3 m/s 759 mmHg 40%
    18:00 +28°C° 0 mm 3 m/s 759 mmHg 48%
    19:00 +26°C° 0 mm 3 m/s 759 mmHg 54%
    20:00 +25°C° 0 mm 3 m/s 760 mmHg 60%
    21:00 +22°C° 0 mm 3 m/s 761 mmHg 66%
    22:00 +23°C° 0 mm 2 m/s 761 mmHg 68%
    23:00 +22°C° 0 mm 1 m/s 761 mmHg 69%

    Poimâine, 23 August, Vineri

    Timp Temperatura Precipitaţii Vânt Presiune Umiditate
    00:00 +22°C° 0 mm 1 m/s 761 mmHg 71%
    01:00 +21°C° 0 mm 1 m/s 761 mmHg 71%
    02:00 +21°C° 0 mm 1 m/s 761 mmHg 72%
    03:00 +20°C° 0 mm 2 m/s 761 mmHg 72%
    04:00 +21°C° 0 mm 1 m/s 761 mmHg 72%
    05:00 +21°C° 0 mm 1 m/s 761 mmHg 73%
    06:00 +21°C° 0 mm 1 m/s 761 mmHg 74%
    07:00 +23°C° 0 mm 2 m/s 762 mmHg 66%
    08:00 +25°C° 0 mm 2 m/s 762 mmHg 58%
    09:00 +28°C° 0 mm 3 m/s 762 mmHg 51%
    10:00 +30°C° 0 mm 3 m/s 762 mmHg 43%
    11:00 +32°C° 0 mm 2 m/s 761 mmHg 35%
    12:00 +35°C° 0 mm 2 m/s 761 mmHg 27%
    13:00 +35°C° 0 mm 3 m/s 760 mmHg 28%
    14:00 +35°C° 0 mm 3 m/s 759 mmHg 30%
    15:00 +35°C° 0 mm 4 m/s 758 mmHg 31%
    16:00 +33°C° 0 mm 3 m/s 759 mmHg 39%
    17:00 +30°C° 0 mm 3 m/s 759 mmHg 47%
    18:00 +27°C° 0 mm 2 m/s 759 mmHg 54%
    19:00 +26°C° 0 mm 2 m/s 759 mmHg 63%
    20:00 +25°C° 0 mm 3 m/s 760 mmHg 71%
    21:00 +22°C° 0 mm 3 m/s 761 mmHg 79%
    22:00 +23°C° 0 mm 2 m/s 761 mmHg 82%
    23:00 +21°C° 0 mm 2 m/s 761 mmHg 85%

    24 August, Sâmbătă

    Timp Temperatura Precipitaţii Vânt Presiune Umiditate
    00:00 +21°C° 0 mm 1 m/s 761 mmHg 88%
    01:00 +21°C° 0 mm 1 m/s 761 mmHg 87%
    02:00 +21°C° 0 mm 1 m/s 761 mmHg 87%
    03:00 +21°C° 0 mm 1 m/s 760 mmHg 87%
    04:00 +21°C° 0 mm 1 m/s 761 mmHg 87%
    05:00 +21°C° 0 mm 1 m/s 761 mmHg 87%
    06:00 +20°C° 0 mm 2 m/s 761 mmHg 88%
    07:00 +23°C° 0 mm 2 m/s 761 mmHg 76%
    08:00 +26°C° 0 mm 2 m/s 762 mmHg 64%
    09:00 +29°C° 0 mm 2 m/s 762 mmHg 53%
    10:00 +31°C° 0 mm 2 m/s 761 mmHg 44%
    11:00 +34°C° 0 mm 2 m/s 761 mmHg 34%
    12:00 +36°C° 0 mm 2 m/s 760 mmHg 25%
    13:00 +36°C° 0 mm 3 m/s 759 mmHg 26%
    14:00 +36°C° 0 mm 3 m/s 759 mmHg 27%
    15:00 +35°C° 0 mm 3 m/s 758 mmHg 28%
    16:00 +33°C° 0 mm 3 m/s 758 mmHg 34%
    17:00 +30°C° 0 mm 2 m/s 758 mmHg 41%
    18:00 +28°C° 0 mm 2 m/s 758 mmHg 48%
    19:00 +26°C° 0 mm 2 m/s 759 mmHg 57%
    20:00 +25°C° 0 mm 2 m/s 759 mmHg 66%
    21:00 +23°C° 0 mm 2 m/s 760 mmHg 76%
    22:00 +22°C° 0 mm 1 m/s 760 mmHg 77%
    23:00 +22°C° 0 mm 1 m/s 760 mmHg 78%

    25 August, Duminică

    Timp Temperatura Precipitaţii Vânt Presiune Umiditate
    00:00 +22°C° 0 mm 1 m/s 760 mmHg 79%
    01:00 +21°C° 0 mm 2 m/s 760 mmHg 81%
    02:00 +20°C° 0 mm 2 m/s 760 mmHg 84%
    03:00 +20°C° 0 mm 3 m/s 760 mmHg 87%
    04:00 +20°C° 0 mm 3 m/s 760 mmHg 90%
    05:00 +20°C° 0 mm 3 m/s 760 mmHg 92%
    06:00 +20°C° 0 mm 3 m/s 760 mmHg 94%
    07:00 +22°C° 0 mm 3 m/s 761 mmHg 83%
    08:00 +26°C° 0 mm 3 m/s 761 mmHg 73%
    09:00 +28°C° 0 mm 3 m/s 761 mmHg 62%
    10:00 +30°C° 0 mm 3 m/s 761 mmHg 50%
    11:00 +34°C° 0 mm 3 m/s 760 mmHg 37%
    12:00 +36°C° 0 mm 3 m/s 760 mmHg 25%
    13:00 +36°C° 0 mm 3 m/s 759 mmHg 23%
    14:00 +37°C° 0 mm 3 m/s 758 mmHg 21%
    15:00 +38°C° 0 mm 4 m/s 757 mmHg 20%
    16:00 +35°C° 0 mm 3 m/s 757 mmHg 29%
    17:00 +31°C° 0 mm 3 m/s 757 mmHg 38%
    18:00 +28°C° 0 mm 2 m/s 757 mmHg 47%
    19:00 +26°C° 0 mm 2 m/s 758 mmHg 57%
    20:00 +24°C° 0 mm 2 m/s 759 mmHg 66%
    21:00 +23°C° 0 mm 2 m/s 759 mmHg 76%
    22:00 +21°C° 0 mm 2 m/s 759 mmHg 78%
    23:00 +21°C° 0 mm 2 m/s 760 mmHg 80%

    26 August, Luni

    Timp Temperatura Precipitaţii Vânt Presiune Umiditate
    00:00 +22°C° 0 mm 1 m/s 760 mmHg 82%
    01:00 +21°C° 0 mm 2 m/s 760 mmHg 84%
    02:00 +21°C° 0 mm 2 m/s 759 mmHg 86%
    03:00 +20°C° 0 mm 2 m/s 759 mmHg 87%
    04:00 +20°C° 0 mm 2 m/s 759 mmHg 89%
    05:00 +20°C° 0 mm 2 m/s 760 mmHg 91%
    06:00 +20°C° 0 mm 2 m/s 760 mmHg 93%
    07:00 +22°C° 0 mm 3 m/s 760 mmHg 81%
    08:00 +25°C° 0 mm 3 m/s 761 mmHg 68%
    09:00 +28°C° 0 mm 4 m/s 761 mmHg 56%
    10:00 +30°C° 0 mm 3 m/s 760 mmHg 45%
    11:00 +33°C° 0 mm 3 m/s 760 mmHg 34%
    12:00 +36°C° 0 mm 3 m/s 759 mmHg 23%
    13:00 +36°C° 0 mm 3 m/s 758 mmHg 22%
    14:00 +36°C° 0 mm 4 m/s 758 mmHg 22%
    15:00 +36°C° 0 mm 4 m/s 757 mmHg 21%
    16:00 +34°C° 0 mm 4 m/s 757 mmHg 30%
    17:00 +30°C° 0 mm 3 m/s 757 mmHg 38%
    18:00 +28°C° 0 mm 3 m/s 757 mmHg 47%
    19:00 +26°C° 0 mm 2 m/s 758 mmHg 56%
    20:00 +24°C° 0 mm 2 m/s 759 mmHg 65%
    21:00 +23°C° 0 mm 1 m/s 759 mmHg 73%
    22:00 +22°C° 0 mm 1 m/s 760 mmHg 76%
    23:00 +21°C° 0 mm 2 m/s 760 mmHg 79%
    Arată mai mult